Weather History for Pine Belt, MS

Change the Weather History Date:

Wednesday, April 10, 2013

  Actual Average Record
Temperature  
Mean Temperature 73 °F -  
Max Temperature 80 °F 73 °F 87 °F (1999)
Min Temperature 66 °F 51 °F 39 °F (2003)
Cooling Degree Days 8    
Growing Degree Days 23 (Base 50)    
Moisture  
Dew Point 64 °F    
Average Humidity 73    
Maximum Humidity 94    
Minimum Humidity 57    
Precipitation  
Precipitation 0.00 in - - ()
Sea Level Pressure  
Sea Level Pressure 29.95 in    
Wind  
Wind Speed 12 mph (SSE)    
Max Wind Speed 22 mph    
Max Gust Speed 26 mph    
Visibility 10 miles    
Events      
Averages and records for this station are not official NWS values.
T = Trace of Precipitation, MM = Missing Value Source: NWS Daily Summary

Daily Weather History Graph

Daily Weather History Graph

Search for Another Location

Airport:

Trip Planner

Search our weather history database for the weather conditions in past years. The results will help you decide how hot, cold, wet, or windy it might be!

Date:

Astronomy

Apr. 10, 2013 Rise Set
Actual Time 6:34 AM CDT 7:22 PM CDT
Civil Twilight 6:09 AM CDT 7:47 PM CDT
Nautical Twilight 5:40 AM CDT 8:16 PM CDT
Astronomical Twilight 5:10 AM CDT 8:46 PM CDT
Moon 6:32 AM CDT (4/10) 7:54 PM CDT (4/10)
Length of Visible Light 13h 37m
Length of Day
12h 48m
New Moon, 0% of the Moon is Illuminated
Apr 10
New Moon
Apr 18
First Quarter
Apr 25
Full
May 2
Last Quarter
May 9
New

Hourly Weather History & Observations

Time (CDT) Temp. Heat Index Dew Point Humidity Pressure Visibility Wind Dir Wind Speed Gust Speed Precip Events Conditions
12:15 AM 69.8 °F - 62.6 °F 78% 29.98 in 10.0 mi SSE 13.8 mph 23.0 mph N/A   Overcast
12:35 AM 69.8 °F - 64.4 °F 83% 30.00 in 10.0 mi SSE 12.7 mph 18.4 mph N/A   Overcast
12:55 AM 69.8 °F - 64.4 °F 83% 30.00 in 10.0 mi South 10.4 mph 16.1 mph N/A   Overcast
1:15 AM 69.8 °F - 64.4 °F 83% 30.00 in 10.0 mi SSE 16.1 mph 19.6 mph N/A   Overcast
1:35 AM 69.8 °F - 64.4 °F 83% 30.01 in 10.0 mi SSE 10.4 mph - N/A   Overcast
1:55 AM 69.8 °F - 62.6 °F 78% 30.00 in 10.0 mi SSE 9.2 mph - N/A   Mostly Cloudy
2:15 AM 68.0 °F - 62.6 °F 83% 29.99 in 10.0 mi SE 8.1 mph - N/A   Scattered Clouds
2:35 AM 68.0 °F - 62.6 °F 83% 29.97 in 10.0 mi SE 5.8 mph - N/A   Mostly Cloudy
2:55 AM 68.0 °F - 62.6 °F 83% 29.97 in 10.0 mi SE 4.6 mph - N/A   Mostly Cloudy
3:16 AM 66.2 °F - 62.6 °F 88% 29.98 in 10.0 mi SSE 4.6 mph - N/A   Overcast
3:35 AM 66.2 °F - 62.6 °F 88% 29.97 in 10.0 mi SE 4.6 mph - N/A   Overcast
3:55 AM 66.2 °F - 62.6 °F 88% 29.97 in 10.0 mi ESE 4.6 mph - N/A   Overcast
4:15 AM 66.2 °F - 62.6 °F 88% 29.97 in 10.0 mi ESE 4.6 mph - N/A   Overcast
4:35 AM 66.2 °F - 62.6 °F 88% 29.96 in 10.0 mi East 4.6 mph - N/A   Overcast
4:55 AM 66.2 °F - 62.6 °F 88% 29.96 in 10.0 mi ESE 4.6 mph - N/A   Overcast
5:15 AM 66.2 °F - 62.6 °F 88% 29.97 in 10.0 mi SE 4.6 mph - N/A   Overcast
5:35 AM 66.2 °F - 62.6 °F 88% 29.97 in 10.0 mi SSE 5.8 mph - N/A   Overcast
5:55 AM 66.2 °F - 62.6 °F 88% 29.96 in 10.0 mi SE 6.9 mph - N/A   Overcast
6:15 AM 66.2 °F - 62.6 °F 88% 29.95 in 10.0 mi ESE 9.2 mph - N/A   Overcast
6:35 AM 66.2 °F - 64.4 °F 94% 29.95 in 10.0 mi SE 10.4 mph - N/A   Overcast
6:55 AM 68.0 °F - 62.6 °F 83% 29.96 in 10.0 mi SSE 12.7 mph 19.6 mph N/A   Overcast
7:15 AM 68.0 °F - 64.4 °F 88% 29.95 in 10.0 mi SSE 10.4 mph 16.1 mph N/A   Overcast
7:35 AM 69.8 °F - 64.4 °F 83% 29.96 in 10.0 mi SSE 15.0 mph 19.6 mph N/A   Overcast
7:55 AM 69.8 °F - 64.4 °F 83% 29.96 in 10.0 mi SSE 12.7 mph 18.4 mph N/A   Overcast
8:15 AM 69.8 °F - 64.4 °F 83% 29.97 in 10.0 mi SSE 11.5 mph 17.3 mph N/A   Overcast
8:35 AM 71.6 °F - 64.4 °F 78% 29.97 in 10.0 mi SSE 17.3 mph 21.9 mph N/A   Overcast
8:55 AM 73.4 °F - 64.4 °F 73% 29.97 in 10.0 mi SSE 19.6 mph 23.0 mph N/A   Overcast
9:15 AM 73.4 °F - 64.4 °F 73% 29.97 in 10.0 mi SSE 17.3 mph 24.2 mph N/A   Scattered Clouds
9:35 AM 75.2 °F - 64.4 °F 69% 29.97 in 10.0 mi SSE 15.0 mph 23.0 mph N/A   Scattered Clouds
9:55 AM 77.0 °F - 66.2 °F 69% 29.97 in 10.0 mi SSE 16.1 mph 23.0 mph N/A   Mostly Cloudy
10:15 AM 75.2 °F - 64.4 °F 69% 29.98 in 10.0 mi SSE 21.9 mph 26.5 mph N/A   Partly Cloudy
10:35 AM 75.2 °F - 64.4 °F 69% 29.99 in 10.0 mi SSE 18.4 mph 26.5 mph N/A   Partly Cloudy
10:55 AM 77.0 °F - 64.4 °F 65% 30.00 in 10.0 mi SSE 17.3 mph 24.2 mph N/A   Mostly Cloudy
11:15 AM 78.8 °F - 64.4 °F 61% 30.00 in 10.0 mi SSE 16.1 mph 24.2 mph N/A   Mostly Cloudy
11:35 AM 78.8 °F - 64.4 °F 61% 30.01 in 10.0 mi South 17.3 mph - N/A   Overcast
12:15 PM 78.8 °F - 64.4 °F 61% 30.00 in 10.0 mi South 16.1 mph 21.9 mph N/A   Scattered Clouds
12:35 PM 77.0 °F - 64.4 °F 65% 30.00 in 10.0 mi South 12.7 mph 19.6 mph N/A   Partly Cloudy
1:15 PM 78.8 °F - 64.4 °F 61% 29.99 in 10.0 mi South 15.0 mph 26.5 mph N/A   Overcast
1:35 PM 80.6 °F 82.3 °F 64.4 °F 58% 29.98 in 10.0 mi South 12.7 mph 20.7 mph N/A   Mostly Cloudy
1:55 PM 80.6 °F 82.3 °F 64.4 °F 58% 29.99 in 10.0 mi SSE 15.0 mph 21.9 mph N/A   Scattered Clouds
2:15 PM 78.8 °F - 64.4 °F 61% 29.98 in 10.0 mi South 15.0 mph 23.0 mph N/A   Scattered Clouds
2:35 PM 78.8 °F - 64.4 °F 61% 29.98 in 10.0 mi SSE 13.8 mph - N/A   Mostly Cloudy
2:55 PM 78.8 °F - 64.4 °F 61% 29.97 in 10.0 mi SSE 15.0 mph - N/A   Mostly Cloudy
3:15 PM 78.8 °F - 64.4 °F 61% 29.96 in 10.0 mi SSE 15.0 mph - N/A   Mostly Cloudy
3:35 PM 78.8 °F - 64.4 °F 61% 29.95 in 10.0 mi SSE 17.3 mph 21.9 mph N/A   Mostly Cloudy
3:55 PM 80.6 °F 82.3 °F 64.4 °F 58% 29.93 in 10.0 mi South 10.4 mph - N/A   Overcast
4:15 PM 78.8 °F - 64.4 °F 61% 29.93 in 10.0 mi SSE 16.1 mph 23.0 mph N/A   Mostly Cloudy
4:35 PM 78.8 °F - 64.4 °F 61% 29.92 in 10.0 mi South 13.8 mph - N/A   Overcast
4:55 PM 80.6 °F 82.3 °F 64.4 °F 58% 29.91 in 10.0 mi SSE 16.1 mph 20.7 mph N/A   Mostly Cloudy
5:15 PM 80.6 °F 82.3 °F 64.4 °F 58% 29.90 in 10.0 mi SSE 15.0 mph 21.9 mph N/A   Scattered Clouds
5:35 PM 78.8 °F - 62.6 °F 57% 29.90 in 10.0 mi SSE 16.1 mph 21.9 mph N/A   Overcast
5:55 PM 78.8 °F - 62.6 °F 57% 29.90 in 10.0 mi SSE 11.5 mph 18.4 mph N/A   Overcast
6:15 PM 78.8 °F - 62.6 °F 57% 29.90 in 10.0 mi SSE 10.4 mph - N/A   Overcast
6:35 PM 77.0 °F - 62.6 °F 61% 29.90 in 10.0 mi South 10.4 mph - N/A   Overcast
6:56 PM 75.2 °F - 62.6 °F 65% 29.90 in 10.0 mi South 9.2 mph - N/A   Mostly Cloudy
7:15 PM 75.2 °F - 62.6 °F 65% 29.90 in 10.0 mi South 12.7 mph - N/A   Mostly Cloudy
7:35 PM 73.4 °F - 62.6 °F 69% 29.90 in 10.0 mi South 9.2 mph - N/A   Mostly Cloudy
7:55 PM 73.4 °F - 62.6 °F 69% 29.89 in 10.0 mi South 9.2 mph - N/A   Scattered Clouds
8:15 PM 71.6 °F - 62.6 °F 73% 29.89 in 10.0 mi South 9.2 mph - N/A   Partly Cloudy
8:35 PM 71.6 °F - 62.6 °F 73% 29.90 in 10.0 mi South 8.1 mph - N/A   Mostly Cloudy
8:55 PM 71.6 °F - 62.6 °F 73% 29.90 in 10.0 mi South 9.2 mph - N/A   Mostly Cloudy
9:16 PM 73.4 °F - 62.6 °F 69% 29.90 in 10.0 mi SSE 11.5 mph 18.4 mph N/A   Mostly Cloudy
9:35 PM - - - N/A% 29.89 in 10.0 mi SSE 11.5 mph 17.3 mph N/A   Scattered Clouds
9:55 PM 71.6 °F - 62.6 °F 73% 29.89 in 10.0 mi SSE 13.8 mph 18.4 mph N/A   Partly Cloudy
10:15 PM 71.6 °F - 62.6 °F 73% 29.89 in 10.0 mi SSE 13.8 mph 18.4 mph N/A   Clear
10:35 PM 71.6 °F - 62.6 °F 73% 29.89 in 10.0 mi SSE 11.5 mph - N/A   Clear
10:55 PM 69.8 °F - 62.6 °F 78% 29.89 in 10.0 mi SSE 11.5 mph - N/A   Clear
11:15 PM 69.8 °F - 62.6 °F 78% 29.88 in 10.0 mi SSE 11.5 mph - N/A   Clear
11:35 PM 69.8 °F - 64.4 °F 83% 29.88 in 10.0 mi SSE 10.4 mph - N/A   Clear
11:55 PM 69.8 °F - 64.4 °F 83% 29.87 in 10.0 mi SSE 11.5 mph - N/A   Clear